[ ตารางข้อมูล ] [ Min-Max ] [ วันนี้2 ] [ วันนี้4 ] [ เทียบ-A 3วัน ] [ เทียบ-B 4วัน ]   

วันนี้4   [ ◀ ช่วงเก่ากว่า ] [ ช่วงที่ 47 ] [ ช่วงใหม่กว่า ▶ ] [ ล่าสุด ]    [ 3 ชั่วโมง ] [ 6 ชั่วโมง ] [ 12 ชั่วโมง ] [ 24 ชั่วโมง ]   วันนี้4

อุณภูมิในตู้ Knockdown4529  ราย 24 ชั่วโมง  ที่วัดได้ ในช่วงวันเวลา 17/07/2026 (23:54) ถึง 18/07/2026 (23:54) 
ความชื้นในตู้ Knockdown4529  ราย 24 ชั่วโมง  ที่วัดได้ ในช่วงวันเวลา 17/07/2026 (23:54) ถึง 18/07/2026 (23:54) 
การใช้ไฟฟ้าในตู้ Knockdown4529  ราย 24 ชั่วโมง  ที่วัดได้ ในช่วงวันเวลา 17/07/2026 (23:54) ถึง 18/07/2026 (23:54) 

  DS18B20SHTC3PZEM-004TWiFi 
IDDate d/m/Y & Timedata1
สูง
data2
ต่ำ
data3
นอก
temp
pcb
hum
pcb
VoltAmpWattrssiTime
 4453  18/07/2026 23:53:01  28.9  28.9  26.6  29.9  67.0  226.7  0.04  4.6  -77  23:53 
 4452  18/07/2026 23:48:18  28.9  28.9  26.5  30.1  67.1  226.4  0.04  4.6  -79  23:48 
 4451  18/07/2026 23:43:35  28.9  28.9  26.5  30.0  67.0  228.2  0.04  4.6  -79  23:43 
 4450  18/07/2026 23:38:52  28.9  28.9  26.6  29.9  67.2  228.2  0.04  4.5  -81  23:38 
 4449  18/07/2026 23:34:09  29.0  28.9  26.5  30.1  67.2  229.3  0.04  4.5  -79  23:34 
 4448  18/07/2026 23:29:26  29.0  29.0  26.5  30.0  67.1  228.5  0.04  4.6  -77  23:29 
 4447  18/07/2026 23:24:43  29.1  29.0  26.4  29.9  67.2  229.8  0.04  4.6  -82  23:24 
 4446  18/07/2026 23:20:00  29.1  29.0  26.5  30.1  67.0  228.6  0.04  4.6  -77  23:20 
 4445  18/07/2026 23:15:17  29.1  29.1  26.6  30.1  66.9  229.6  0.04  4.6  -81  23:15 
 4444  18/07/2026 23:10:35  29.1  29.1  26.5  30.2  66.9  227.7  0.04  4.6  -82  23:10 
 4443  18/07/2026 23:05:52  29.1  29.1  26.5  30.1  67.0  227.3  0.04  4.5  -81  23:05 
 4442  18/07/2026 23:01:09  29.2  29.1  26.5  30.1  66.8  230.4  0.04  4.6  -81  23:01 
 4441  18/07/2026 22:56:26  29.2  29.1  26.6  30.2  66.9  230.4  0.04  4.6  -80  22:56 
 4440  18/07/2026 22:51:43  29.2  29.2  26.6  30.4  66.8  231.7  0.04  4.6  -80  22:51 
 4439  18/07/2026 22:47:01  29.2  29.2  26.5  30.1  66.9  230.4  0.04  4.6  -80  22:47 
 4438  18/07/2026 22:42:17  29.3  29.2  26.4  30.2  66.9  232.3  0.04  4.6  -81  22:42 
 4437  18/07/2026 22:37:34  29.3  29.2  26.5  30.2  66.9  230.0  0.04  4.6  -81  22:37 
 4436  18/07/2026 22:32:51  29.3  29.2  26.4  30.3  66.9  231.4  0.04  4.6  -81  22:32 
 4435  18/07/2026 22:28:07  29.4  29.2  26.6  30.2  66.7  230.2  0.04  4.6  -83  22:28 
 4434  18/07/2026 22:23:24  29.4  29.3  26.6  30.4  66.9  231.0  0.04  4.6  -81  22:23 
 4433  18/07/2026 22:18:41  29.4  29.3  26.6  30.5  66.9  229.8  0.04  4.6  -80  22:18 
 4432  18/07/2026 22:13:58  29.4  29.4  26.6  30.5  66.8  232.1  0.04  4.6  -82  22:13 
 4431  18/07/2026 22:09:14  29.4  29.4  26.5  30.5  66.7  231.5  0.04  4.6  -82  22:09 
 4430  18/07/2026 22:04:32  29.5  29.4  26.5  30.5  66.8  232.5  0.04  4.6  -81  22:04 

Data every 5 minute.


ใช้เวลาประมวลผล 0.04061 วินาที